Regional Weather Roundup
Issued by NWS Green Bay, WI

Home | Current Version | Previous Version | Graphics & Text | Print | Product List | Glossary Off
Versions: 1 2 3 4 5 6 7 8 9 10 11 12 13 14 15 16 17 18 19 20 21 22 23 24 25 26 27 28 29 30 31 32 33 34 35 36 37 38 39 40 41 42 43 44 45 46 47 48 49 50

000
ASUS43 KGRB 161600
RWRGRB

NORTH-CENTRAL AND NORTHEAST WISCONSIN REGIONAL WEATHER ROUNDUP
NATIONAL WEATHER SERVICE GREEN BAY WI
1000 AM CST SAT DEC 16 2017

WIZ005-009-010>012-018-019-161700-
NORTH CENTRAL WISCONSIN

CITY           SKY/WX    TMP DP  RH WIND       PRES   REMARKS
IRONWOOD       CLOUDY    15   8  73 E7        29.93R WCI   5
MANITOWISH WTR NOT AVBL
ARBOR VITAE    NOT AVBL
EAGLE RIVER    NOT AVBL
LAND O LAKES   NOT AVBL
RHINELANDER    CLOUDY    13   7  77 E8        29.90R WCI   2
PHILLIPS       NOT AVBL
ANTIGO         NOT AVBL
TOMAHAWK       NOT AVBL
MERRILL        NOT AVBL
$$

WIZ013-073-161700-
NORTHEAST WISCONSIN

CITY           SKY/WX    TMP DP  RH WIND       PRES   REMARKS
IRON MOUNTAIN  CLOUDY    15   6  67 VRB3      29.95R
MARINETTE      CLOUDY    19  13  77 NE6       30.00R
$$

WIZ017-030-035>037-045-161700-
CENTRAL WISCONSIN

CITY           SKY/WX    TMP DP  RH WIND       PRES   REMARKS
MEDFORD        NOT AVBL
WAUSAU         CLOUDY    16   7  67 E8        29.90R WCI   5
MOSINEE        CLOUDY    16  10  79 E12       29.90R WCI   3
MARSHFIELD     CLOUDY    17  12  80 E15       29.87R WCI   2
WISC RAPIDS    CLOUDY    19  12  74 E12       29.91R WCI   7
STEVENS POINT  NOT AVBL
WAUPACA        NOT AVBL
SHAWANO        NOT AVBL
CLINTONVILLE   NOT AVBL
WAUTOMA        CLOUDY    21  16  81 E10       29.92R WCI  10
$$

WIZ038-039-048-051-161700-
FOX VALLEY

CITY           SKY/WX    TMP DP  RH WIND       PRES   REMARKS
NWS GREEN BAY  CLOUDY    21  12  68 NE8       29.96R
APPLETON       CLOUDY    21  14  73 NE12      29.92R WCI   9
OSHKOSH        CLOUDY    23  19  85 NE10      29.92R
FOND DU LAC    CLOUDY    25  20  81 NE8       29.91R
$$

WIZ022-050-052-161700-
EAST CENTRAL WISCONSIN

CITY           SKY/WX    TMP DP  RH WIND       PRES   REMARKS
EPHRAIM        NOT AVBL
WASHINGTON ISL NOT AVBL
STURGEON BAY   CLOUDY    23  15  71 NE6       29.98R
MANITOWOC      CLOUDY    23  21  92 N7        29.96R
SHEBOYGAN      CLOUDY    29  27  92 E9        29.93R
$$

LMZ563-521-522-541>543-161700-
LAKESHORE

STATION/POSITION TIME  TEMP    WIND        PRES    VSBY  WAVE
                       AIR SEA DIR/SP/G                  HT/PER
                 (UTC) (F)     (DEG/KT/KT) (MB)    (MI)  (FT/S)
SHEBOYGAN LKSHOR 1500   30      70/ 14/ 16 1013.7R
NORTHPORT PIER   1540   24      20/  9/ 12 1015.2R
$$




USA.gov is the U.S. government's official web portal to all federal, state and local government web resources and services.